| time (UTC) | temp F | wind direction | speed knots | gust knots | rain 1hr in | rain 24hr in | rain mn in | humidity % | barometer mb |
| 20260506113956 | 53 | 333 | 4.3 | 9.6 | 0.00 | 0.00 | 0.00 | 83 | 1010.9 |
| 20260506113453 | 53 | 315 | 6.1 | 8.7 | 0.00 | 0.00 | 0.00 | 83 | 1011.0 |
| 20260506112950 | 53 | 303 | 3.5 | 6.1 | 0.00 | 0.00 | 0.00 | 82 | 1010.6 |
| 20260506112447 | 53 | 330 | 6.1 | 9.6 | 0.00 | 0.00 | 0.00 | 82 | 1010.8 |
| 20260506111944 | 53 | 339 | 2.6 | 9.6 | 0.00 | 0.00 | 0.00 | 82 | 1010.6 |
| 20260506111443 | 53 | 316 | 5.2 | 7.8 | 0.00 | 0.00 | 0.00 | 82 | 1010.6 |
| 20260506110939 | 53 | 35 | 6.1 | 11.3 | 0.00 | 0.00 | 0.00 | 81 | 1010.3 |
| 20260506110437 | 53 | 343 | 3.5 | 8.7 | 0.00 | 0.00 | 0.00 | 81 | 1010.0 |
| 20260506105933 | 53 | 351 | 4.3 | 9.6 | 0.00 | 0.00 | 0.00 | 81 | 1010.1 |
| 20260506105430 | 53 | 310 | 3.5 | 8.7 | 0.00 | 0.00 | 0.00 | 81 | 1010.1 |
| 20260506104927 | 53 | 309 | 2.6 | 7.8 | 0.00 | 0.00 | 0.00 | 81 | 1010.0 |
| 20260506104425 | 53 | 336 | 6.1 | 9.6 | 0.00 | 0.00 | 0.00 | 80 | 1009.9 |
| 20260506103923 | 54 | 326 | 3.5 | 7.8 | 0.00 | 0.00 | 0.00 | 80 | 1009.7 |
| 20260506103420 | 54 | 310 | 5.2 | 8.7 | 0.00 | 0.00 | 0.00 | 80 | 1009.6 |
| 20260506102917 | 54 | 347 | 4.3 | 8.7 | 0.00 | 0.00 | 0.00 | 80 | 1010.0 |
| 20260506102415 | 54 | 310 | 4.3 | 5.2 | 0.00 | 0.00 | 0.00 | 80 | 1009.6 |
| 20260506101912 | 54 | 344 | 6.1 | 7.0 | 0.00 | 0.00 | 0.00 | 80 | 1009.6 |
| 20260506101408 | 54 | 318 | 3.5 | 7.8 | 0.00 | 0.00 | 0.00 | 79 | 1009.4 |
| 20260506100906 | 54 | 324 | 4.3 | 5.2 | 0.00 | 0.00 | 0.00 | 79 | 1009.6 |
| 20260506100404 | 54 | 325 | 7.0 | 8.7 | 0.00 | 0.00 | 0.00 | 79 | 1009.3 |
| 20260506095902 | 54 | 291 | 2.6 | 7.8 | 0.00 | 0.00 | 0.00 | 79 | 1009.4 |
| 20260506095400 | 54 | 3 | 3.5 | 7.0 | 0.00 | 0.00 | 0.00 | 79 | 1009.4 |
| 20260506094856 | 54 | 357 | 1.7 | 7.0 | 0.00 | 0.00 | 0.00 | 79 | 1009.4 |
| 20260506094355 | 55 | 313 | 3.5 | 8.7 | 0.00 | 0.00 | 0.00 | 78 | 1009.0 |
| 20260506093852 | 55 | 301 | 4.3 | 9.6 | 0.00 | 0.00 | 0.00 | 78 | 1009.1 |
| 20260506093350 | 55 | 21 | 2.6 | 6.1 | 0.00 | 0.00 | 0.00 | 78 | 1009.3 |
| 20260506092847 | 55 | 307 | 1.7 | 7.0 | 0.00 | 0.00 | 0.00 | 78 | 1009.3 |
| 20260506092345 | 55 | 13 | 6.1 | 7.0 | 0.00 | 0.00 | 0.00 | 78 | 1009.2 |
| 20260506091841 | 55 | 356 | 4.3 | 7.8 | 0.00 | 0.00 | 0.00 | 78 | 1008.9 |
| 20260506091339 | 55 | 343 | 4.3 | 6.1 | 0.00 | 0.00 | 0.00 | 78 | 1008.8 |
| 20260506090836 | 55 | 308 | 3.5 | 7.0 | 0.00 | 0.00 | 0.00 | 78 | 1009.1 |
| 20260506090334 | 55 | 5 | 1.7 | 5.2 | 0.00 | 0.00 | 0.00 | 78 | 1008.6 |
| 20260506085830 | 55 | 4 | 1.7 | 5.2 | 0.00 | 0.00 | 0.00 | 78 | 1008.6 |
| 20260506085326 | 55 | 328 | 2.6 | 6.1 | 0.00 | 0.00 | 0.00 | 78 | 1008.8 |
| 20260506084823 | 55 | 318 | 3.5 | 6.1 | 0.00 | 0.00 | 0.00 | 78 | 1008.9 |
| 20260506084320 | 55 | 341 | 2.6 | 7.0 | 0.00 | 0.00 | 0.00 | 77 | 1008.7 |
| 20260506083817 | 56 | 357 | 3.5 | 7.8 | 0.00 | 0.00 | 0.00 | 77 | 1008.5 |
| 20260506083314 | 56 | 317 | 1.7 | 3.5 | 0.00 | 0.00 | 0.00 | 78 | 1008.6 |
| 20260506082812 | 56 | 326 | 2.6 | 3.5 | 0.00 | 0.00 | 0.00 | 78 | 1008.6 |
| 20260506082308 | 56 | 343 | 2.6 | 3.5 | 0.00 | 0.00 | 0.00 | 79 | 1008.6 |
| 20260506081805 | 56 | 325 | 1.7 | 3.5 | 0.00 | 0.00 | 0.00 | 79 | 1008.5 |
| 20260506081302 | 56 | 327 | 1.7 | 3.5 | 0.00 | 0.00 | 0.00 | 79 | 1008.5 |
| 20260506080800 | 56 | 26 | 1.7 | 3.5 | 0.00 | 0.00 | 0.00 | 78 | 1008.1 |
| 20260506080256 | 56 | 0 | 2.6 | 6.1 | 0.00 | 0.00 | 0.00 | 78 | 1008.3 |
| 20260506073240 | 56 | 346 | 3.5 | 6.1 | 0.00 | 0.00 | 0.00 | 79 | 1008.5 |
| 20260506072737 | 56 | 335 | 2.6 | 7.0 | 0.00 | 0.00 | 0.00 | 79 | 1008.5 |
| 20260506072235 | 56 | 320 | 3.5 | 7.0 | 0.00 | 0.00 | 0.00 | 79 | 1008.6 |
| 20260506071732 | 56 | 37 | 3.5 | 7.0 | 0.00 | 0.00 | 0.00 | 80 | 1008.6 |
| 20260506071230 | 57 | 333 | 3.5 | 5.2 | 0.00 | 0.00 | 0.00 | 80 | 1008.6 |
| 20260506070727 | 57 | 308 | 3.5 | 6.1 | 0.00 | 0.00 | 0.00 | 80 | 1008.3 |
| 20260506070224 | 57 | 335 | 1.7 | 7.8 | 0.00 | 0.00 | 0.00 | 79 | 1008.7 |
| 20260506062200 | 58 | 317 | 4.3 | 6.1 | 0.00 | 0.00 | 0.00 | 80 | 1008.5 |
| 20260506061656 | 58 | 328 | 6.1 | 7.8 | 0.00 | 0.00 | 0.00 | 80 | 1008.2 |
| 20260506061154 | 58 | 340 | 4.3 | 9.6 | 0.00 | 0.00 | 0.00 | 80 | 1008.6 |
| 20260506060653 | 58 | 354 | 3.5 | 7.0 | 0.00 | 0.00 | 0.00 | 80 | 1008.5 |
| 20260506060149 | 58 | 303 | 2.6 | 7.8 | 0.00 | 0.00 | 0.00 | 81 | 1008.4 |
| 20260506051121 | 60 | 322 | 3.5 | 7.8 | 0.00 | 0.00 | 0.00 | 82 | 1008.2 |
| 20260506050619 | 60 | 324 | 4.3 | 6.1 | 0.00 | 0.00 | 0.00 | 82 | 1008.2 |
| 20260506050116 | 60 | 315 | 4.3 | 6.1 | 0.00 | 0.00 | 0.00 | 82 | 1008.3 |
| 20260506045109 | 60 | 352 | 3.5 | 7.0 | 0.00 | 0.03 | 0.03 | 82 | 1008.2 |
| 20260506044607 | 60 | 305 | 3.5 | 7.8 | 0.00 | 0.03 | 0.03 | 82 | 1008.0 |
| 20260506044104 | 60 | 339 | 6.1 | 8.7 | 0.00 | 0.03 | 0.03 | 82 | 1008.1 |
| 20260506043601 | 60 | 323 | 5.2 | 7.0 | 0.00 | 0.03 | 0.03 | 82 | 1008.1 |
| 20260506043059 | 60 | 339 | 2.6 | 6.1 | 0.00 | 0.03 | 0.03 | 82 | 1008.0 |
| 20260506042558 | 60 | 349 | 4.3 | 7.8 | 0.00 | 0.03 | 0.03 | 81 | 1007.9 |
| 20260506042056 | 60 | 330 | 4.3 | 8.7 | 0.00 | 0.03 | 0.03 | 82 | 1007.8 |
| 20260506041554 | 60 | 357 | 5.2 | 9.6 | 0.00 | 0.03 | 0.03 | 82 | 1007.8 |
| 20260506041050 | 61 | 16 | 6.1 | 12.2 | 0.00 | 0.03 | 0.03 | 82 | 1008.1 |
| 20260506040549 | 61 | 344 | 8.7 | 11.3 | 0.00 | 0.03 | 0.03 | 82 | 1007.9 |
| 20260506040044 | 61 | 341 | 6.1 | 7.8 | 0.00 | 0.03 | 0.03 | 82 | 1007.6 |
| 20260506035542 | 62 | 315 | 7.8 | 11.3 | 0.00 | 0.03 | 0.03 | 81 | 1007.5 |
| 20260506035038 | 62 | 6 | 5.2 | 7.0 | 0.00 | 0.03 | 0.03 | 81 | 1007.3 |
| 20260506034536 | 63 | 302 | 2.6 | 12.2 | 0.00 | 0.03 | 0.03 | 82 | 1007.6 |
| 20260506034032 | 63 | 38 | 3.5 | 5.2 | 0.00 | 0.03 | 0.03 | 81 | 1007.2 |
| 20260506033530 | 64 | 24 | 3.5 | 7.8 | 0.00 | 0.03 | 0.03 | 80 | 1007.1 |
| 20260506033027 | 65 | 351 | 4.3 | 11.3 | 0.00 | 0.03 | 0.03 | 80 | 1007.0 |
| 20260506032524 | 66 | 14 | 3.5 | 7.0 | 0.00 | 0.03 | 0.03 | 80 | 1006.9 |
| 20260506032020 | 66 | 347 | 4.3 | 7.8 | 0.00 | 0.03 | 0.03 | 80 | 1006.9 |
| 20260506031518 | 67 | 355 | 7.8 | 11.3 | 0.00 | 0.03 | 0.03 | 80 | 1006.9 |
| 20260506031015 | 67 | 299 | 2.6 | 6.1 | 0.00 | 0.03 | 0.03 | 81 | 1006.9 |
| 20260506030513 | 67 | 328 | 5.2 | 7.8 | 0.00 | 0.03 | 0.03 | 80 | 1006.7 |
| 20260506030010 | 68 | 327 | 5.2 | 8.7 | 0.00 | 0.03 | 0.03 | 80 | 1006.5 |
| 20260506025507 | 68 | 34 | 3.5 | 9.6 | 0.00 | 0.03 | 0.03 | 81 | 1006.0 |
| 20260506025003 | 68 | 315 | 4.3 | 7.0 | 0.00 | 0.03 | 0.03 | 81 | 1006.0 |
| 20260506024500 | 68 | 326 | 2.6 | 6.1 | 0.00 | 0.03 | 0.03 | 81 | 1005.7 |
| 20260506023956 | 69 | 320 | 5.2 | 8.7 | 0.00 | 0.03 | 0.03 | 80 | 1005.7 |
| 20260506023453 | 69 | 336 | 5.2 | 13.0 | 0.00 | 0.03 | 0.03 | 80 | 1005.6 |
| 20260506022949 | 69 | 328 | 4.3 | 6.1 | 0.00 | 0.03 | 0.03 | 82 | 1005.6 |
| 20260506022447 | 70 | 304 | 0.9 | 2.6 | 0.00 | 0.03 | 0.03 | 82 | 1005.2 |
| 20260506021945 | 70 | 32 | 1.7 | 5.2 | 0.00 | 0.03 | 0.03 | 82 | 1005.0 |
| 20260506021442 | 71 | 320 | 1.7 | 2.6 | 0.00 | 0.03 | 0.03 | 81 | 1005.2 |
| 20260506020939 | 71 | 9 | 2.6 | 6.1 | 0.00 | 0.03 | 0.03 | 81 | 1005.3 |
| 20260506020437 | 71 | 340 | 1.7 | 6.1 | 0.00 | 0.03 | 0.03 | 81 | 1005.0 |
| 20260506015934 | 71 | 316 | 2.6 | 5.2 | 0.00 | 0.03 | 0.03 | 81 | 1005.4 |
| 20260506015431 | 72 | 354 | 2.6 | 3.5 | 0.00 | 0.03 | 0.03 | 80 | 1004.6 |
| 20260506014928 | 72 | 333 | 1.7 | 2.6 | 0.00 | 0.03 | 0.03 | 80 | 1004.8 |
| 20260506014425 | 72 | 329 | 1.7 | 2.6 | 0.00 | 0.03 | 0.03 | 81 | 1004.5 |
| 20260506013921 | 72 | 305 | 1.7 | 3.5 | 0.00 | 0.03 | 0.03 | 82 | 1005.1 |
| 20260506013420 | 73 | 244 | 1.7 | 2.6 | 0.00 | 0.03 | 0.03 | 81 | 1005.2 |
| 20260506012915 | 73 | 317 | 0.9 | 1.7 | 0.00 | 0.03 | 0.03 | 80 | 1004.7 |
| 20260506012412 | 73 | 305 | 0.0 | 0.9 | 0.00 | 0.03 | 0.03 | 80 | 1004.5 |
| 20260506011909 | 73 | 265 | 0.9 | 1.7 | 0.00 | 0.03 | 0.03 | 79 | 1004.5 |
| 20260506011406 | 73 | 296 | 1.7 | 2.6 | 0.00 | 0.03 | 0.03 | 78 | 1004.4 |
| 20260506010903 | 74 | 326 | 1.7 | 3.5 | 0.00 | 0.03 | 0.03 | 76 | 1004.2 |
| 20260506010402 | 75 | 16 | 1.7 | 2.6 | 0.00 | 0.03 | 0.03 | 75 | 1004.2 |
| 20260506005858 | 74 | 312 | 2.6 | 3.5 | 0.00 | 0.03 | 0.03 | 75 | 1004.3 |
| 20260506005355 | 74 | 297 | 3.5 | 3.5 | 0.00 | 0.03 | 0.03 | 76 | 1004.4 |
| 20260506004850 | 75 | 218 | 1.7 | 3.5 | 0.00 | 0.03 | 0.03 | 79 | 1004.2 |
| 20260506004349 | 76 | 229 | 4.3 | 5.2 | 0.00 | 0.03 | 0.03 | 85 | 1004.1 |
| 20260506003845 | 76 | 235 | 5.2 | 6.1 | 0.00 | 0.03 | 0.03 | 87 | 1004.1 |
| 20260506003341 | 76 | 280 | 4.3 | 6.1 | 0.00 | 0.03 | 0.03 | 88 | 1004.2 |
| 20260506002838 | 76 | 280 | 4.3 | 6.1 | 0.07 | 0.03 | 0.03 | 86 | 1004.3 |
| 20260506002334 | 77 | 268 | 2.6 | 3.5 | 0.12 | 0.03 | 0.03 | 84 | 1004.0 |
| 20260506001829 | 77 | 203 | 1.7 | 3.5 | 0.12 | 0.02 | 0.02 | 82 | 1003.7 |
| 20260506001327 | 79 | 184 | 4.3 | 8.7 | 0.07 | 0.01 | 0.01 | 78 | 1003.6 |
| 20260506000824 | 80 | 172 | 4.3 | 9.6 | 0.00 | 0.00 | 0.00 | 75 | 1003.2 |
| 20260506000323 | 80 | 181 | 4.3 | 7.8 | 0.00 | 0.00 | 0.00 | 74 | 1003.2 |
| 20260505235818 | 81 | 180 | 3.5 | 7.0 | 0.00 | 0.00 | 0.00 | 74 | 1003.0 |
| 20260505235316 | 81 | 165 | 5.2 | 9.6 | 0.00 | 0.00 | 0.00 | 73 | 1003.2 |
| 20260505234812 | 81 | 197 | 3.5 | 7.8 | 0.00 | 0.00 | 0.00 | 73 | 1003.3 |
| 20260505234310 | 81 | 158 | 3.5 | 9.6 | 0.00 | 0.00 | 0.00 | 72 | 1003.3 |
| 20260505233807 | 82 | 188 | 5.2 | 7.0 | 0.00 | 0.00 | 0.00 | 72 | 1003.2 |
| 20260505233305 | 82 | 160 | 5.2 | 8.7 | 0.00 | 0.00 | 0.00 | 71 | 1003.0 |
| 20260505232802 | 82 | 160 | 5.2 | 8.7 | 0.00 | 0.00 | 0.00 | 71 | 1003.3 |
| 20260505232259 | 82 | 198 | 5.2 | 9.6 | 0.00 | 0.00 | 0.00 | 71 | 1003.0 |
| 20260505231755 | 82 | 101 | 7.8 | 11.3 | 0.00 | 0.00 | 0.00 | 70 | 1002.9 |
| 20260505231254 | 82 | 176 | 8.7 | 11.3 | 0.00 | 0.00 | 0.00 | 70 | 1003.0 |
| 20260505230752 | 83 | 165 | 4.3 | 9.6 | 0.00 | 0.00 | 0.00 | 70 | 1002.9 |
| 20260505230249 | 84 | 161 | 9.6 | 11.3 | 0.00 | 0.00 | 0.00 | 68 | 1002.9 |
| 20260505225745 | 83 | 165 | 7.8 | 12.2 | 0.00 | 0.00 | 0.00 | 68 | 1002.9 |
| 20260505225243 | 83 | 151 | 6.1 | 7.8 | 0.00 | 0.00 | 0.00 | 69 | 1002.9 |
| 20260505224737 | 83 | 228 | 6.1 | 13.0 | 0.00 | 0.00 | 0.00 | 69 | 1002.9 |
| 20260505224235 | 84 | 173 | 7.8 | 13.0 | 0.00 | 0.00 | 0.00 | 68 | 1002.6 |
| 20260505223733 | 85 | 186 | 9.6 | 12.2 | 0.00 | 0.00 | 0.00 | 66 | 1002.5 |
| 20260505223229 | 85 | 186 | 7.8 | 13.0 | 0.00 | 0.00 | 0.00 | 66 | 1002.3 |
| 20260505222725 | 84 | 153 | 7.8 | 13.0 | 0.00 | 0.00 | 0.00 | 67 | 1002.5 |
| 20260505222221 | 85 | 147 | 6.1 | 9.6 | 0.00 | 0.00 | 0.00 | 67 | 1002.7 |
| 20260505221719 | 85 | 174 | 6.1 | 8.7 | 0.00 | 0.00 | 0.00 | 65 | 1002.5 |
| 20260505221215 | 86 | 155 | 8.7 | 11.3 | 0.00 | 0.00 | 0.00 | 65 | 1002.9 |
| 20260505220712 | 86 | 179 | 9.6 | 11.3 | 0.00 | 0.00 | 0.00 | 65 | 1002.7 |
| 20260505220210 | 86 | 183 | 5.2 | 11.3 | 0.00 | 0.00 | 0.00 | 66 | 1002.6 |
| 20260505215708 | 86 | 147 | 7.0 | 7.8 | 0.00 | 0.00 | 0.00 | 66 | 1002.9 |
| 20260505215205 | 85 | 194 | 7.8 | 9.6 | 0.00 | 0.00 | 0.00 | 65 | 1002.9 |
| 20260505214703 | 84 | 169 | 5.2 | 9.6 | 0.00 | 0.00 | 0.00 | 66 | 1002.7 |
| 20260505214200 | 85 | 187 | 3.5 | 9.6 | 0.00 | 0.00 | 0.00 | 66 | 1002.9 |
| 20260505213657 | 85 | 189 | 8.7 | 11.3 | 0.00 | 0.00 | 0.00 | 64 | 1002.7 |
| 20260505213154 | 85 | 182 | 7.8 | 9.6 | 0.00 | 0.00 | 0.00 | 65 | 1002.9 |
| 20260505212650 | 85 | 199 | 8.7 | 12.2 | 0.00 | 0.00 | 0.00 | 65 | 1003.2 |
| 20260505212148 | 85 | 164 | 7.8 | 11.3 | 0.00 | 0.00 | 0.00 | 65 | 1003.0 |
| 20260505211644 | 85 | 185 | 7.8 | 13.0 | 0.00 | 0.00 | 0.00 | 65 | 1002.9 |
| 20260505211142 | 85 | 186 | 6.1 | 12.2 | 0.00 | 0.00 | 0.00 | 65 | 1003.0 |
| 20260505210638 | 84 | 194 | 9.6 | 12.2 | 0.00 | 0.00 | 0.00 | 66 | 1003.1 |
| 20260505210135 | 84 | 188 | 7.8 | 11.3 | 0.00 | 0.00 | 0.00 | 67 | 1003.1 |
| 20260505205632 | 83 | 224 | 9.6 | 13.9 | 0.00 | 0.00 | 0.00 | 67 | 1003.3 |
| 20260505205131 | 84 | 214 | 7.0 | 13.0 | 0.00 | 0.00 | 0.00 | 67 | 1003.4 |
| 20260505204627 | 84 | 175 | 7.0 | 11.3 | 0.00 | 0.00 | 0.00 | 68 | 1003.4 |
| 20260505204125 | 84 | 196 | 8.7 | 12.2 | 0.00 | 0.00 | 0.00 | 67 | 1003.5 |
| 20260505203621 | 84 | 184 | 7.8 | 14.8 | 0.00 | 0.00 | 0.00 | 65 | 1003.5 |
| 20260505203119 | 84 | 196 | 10.4 | 13.9 | 0.00 | 0.00 | 0.00 | 66 | 1003.4 |
| 20260505202614 | 83 | 138 | 13.0 | 14.8 | 0.00 | 0.00 | 0.00 | 67 | 1003.4 |
| 20260505202111 | 83 | 177 | 7.8 | 13.9 | 0.00 | 0.00 | 0.00 | 67 | 1003.5 |
| 20260505201607 | 83 | 184 | 9.6 | 14.8 | 0.00 | 0.00 | 0.00 | 68 | 1003.5 |
| 20260505201105 | 83 | 193 | 9.6 | 11.3 | 0.00 | 0.00 | 0.00 | 69 | 1003.5 |
| 20260505200603 | 83 | 180 | 12.2 | 14.8 | 0.00 | 0.00 | 0.00 | 69 | 1003.6 |
| 20260505200059 | 83 | 215 | 9.6 | 13.0 | 0.00 | 0.00 | 0.00 | 69 | 1003.9 |
| 20260505195555 | 82 | 145 | 10.4 | 13.0 | 0.00 | 0.00 | 0.00 | 68 | 1003.6 |
| 20260505195053 | 82 | 193 | 8.7 | 13.0 | 0.00 | 0.00 | 0.00 | 68 | 1003.7 |
| 20260505194550 | 82 | 213 | 9.6 | 13.9 | 0.00 | 0.00 | 0.00 | 69 | 1003.6 |
| 20260505194046 | 82 | 194 | 10.4 | 14.8 | 0.00 | 0.00 | 0.00 | 68 | 1003.7 |
| 20260505193543 | 82 | 185 | 7.0 | 13.9 | 0.00 | 0.00 | 0.00 | 69 | 1003.7 |
| 20260505193040 | 82 | 197 | 11.3 | 13.9 | 0.00 | 0.00 | 0.00 | 69 | 1003.6 |
| 20260505192539 | 81 | 193 | 10.4 | 18.2 | 0.00 | 0.00 | 0.00 | 69 | 1003.6 |
| 20260505192036 | 81 | 173 | 8.7 | 13.0 | 0.00 | 0.00 | 0.00 | 71 | 1003.7 |
| 20260505191534 | 81 | 184 | 9.6 | 14.8 | 0.00 | 0.00 | 0.00 | 71 | 1003.7 |
| 20260505191032 | 81 | 187 | 10.4 | 15.6 | 0.00 | 0.00 | 0.00 | 70 | 1003.8 |
| 20260505190532 | 80 | 203 | 9.6 | 13.0 | 0.00 | 0.00 | 0.00 | 71 | 1003.8 |
| 20260505190028 | 80 | 157 | 7.8 | 14.8 | 0.00 | 0.00 | 0.00 | 71 | 1003.9 |
| 20260505185525 | 80 | 205 | 11.3 | 15.6 | 0.00 | 0.00 | 0.00 | 72 | 1004.0 |
| 20260505185021 | 80 | 192 | 11.3 | 14.8 | 0.00 | 0.00 | 0.00 | 72 | 1004.2 |
| 20260505184518 | 80 | 197 | 7.8 | 14.8 | 0.00 | 0.00 | 0.00 | 71 | 1004.0 |
| 20260505184015 | 80 | 199 | 12.2 | 14.8 | 0.00 | 0.00 | 0.00 | 71 | 1003.9 |
| 20260505183513 | 80 | 196 | 12.2 | 18.2 | 0.00 | 0.00 | 0.00 | 70 | 1003.9 |
| 20260505183010 | 81 | 195 | 8.7 | 13.9 | 0.00 | 0.00 | 0.00 | 70 | 1003.9 |
| 20260505182506 | 81 | 195 | 9.6 | 13.0 | 0.00 | 0.00 | 0.00 | 69 | 1004.1 |
| 20260505182002 | 80 | 211 | 7.8 | 11.3 | 0.00 | 0.00 | 0.00 | 71 | 1003.9 |
| 20260505181459 | 80 | 204 | 7.0 | 14.8 | 0.00 | 0.00 | 0.00 | 70 | 1003.8 |
| 20260505180956 | 81 | 147 | 11.3 | 16.5 | 0.00 | 0.00 | 0.00 | 69 | 1003.7 |
| 20260505180452 | 81 | 188 | 10.4 | 16.5 | 0.00 | 0.00 | 0.00 | 69 | 1003.8 |
| 20260505175949 | 80 | 198 | 7.8 | 18.2 | 0.00 | 0.00 | 0.00 | 71 | 1003.9 |
| 20260505175445 | 80 | 192 | 14.8 | 16.5 | 0.00 | 0.00 | 0.00 | 70 | 1003.7 |
| 20260505174942 | 80 | 159 | 9.6 | 16.5 | 0.00 | 0.00 | 0.00 | 70 | 1003.9 |
| 20260505174439 | 80 | 185 | 12.2 | 16.5 | 0.00 | 0.00 | 0.00 | 71 | 1003.9 |
| 20260505173935 | 80 | 215 | 11.3 | 14.8 | 0.00 | 0.00 | 0.00 | 71 | 1003.9 |
| 20260505173432 | 79 | 188 | 12.2 | 18.2 | 0.00 | 0.00 | 0.00 | 71 | 1004.0 |
| 20260505172929 | 79 | 190 | 9.6 | 14.8 | 0.00 | 0.00 | 0.00 | 72 | 1004.3 |
| 20260505172427 | 78 | 193 | 10.4 | 16.5 | 0.00 | 0.00 | 0.00 | 72 | 1004.1 |
| 20260505171926 | 78 | 213 | 8.7 | 18.2 | 0.00 | 0.00 | 0.00 | 72 | 1004.2 |
| 20260505171424 | 79 | 162 | 12.2 | 14.8 | 0.00 | 0.00 | 0.00 | 72 | 1004.2 |
| 20260505170920 | 79 | 180 | 12.2 | 20.0 | 0.00 | 0.00 | 0.00 | 70 | 1004.1 |
| 20260505170417 | 79 | 189 | 10.4 | 15.6 | 0.00 | 0.00 | 0.00 | 71 | 1003.9 |
| 20260505165912 | 78 | 180 | 13.0 | 16.5 | 0.00 | 0.00 | 0.00 | 72 | 1004.3 |
| 20260505165408 | 78 | 182 | 13.0 | 15.6 | 0.00 | 0.00 | 0.00 | 73 | 1004.4 |
| 20260505164903 | 78 | 205 | 13.0 | 15.6 | 0.00 | 0.00 | 0.00 | 73 | 1004.4 |
| 20260505164400 | 77 | 185 | 8.7 | 16.5 | 0.00 | 0.00 | 0.00 | 74 | 1004.3 |
| 20260505163859 | 77 | 200 | 10.4 | 20.9 | 0.00 | 0.00 | 0.00 | 74 | 1004.3 |
| 20260505163357 | 77 | 211 | 10.4 | 18.2 | 0.00 | 0.00 | 0.00 | 74 | 1004.0 |
| 20260505162855 | 77 | 189 | 11.3 | 16.5 | 0.00 | 0.00 | 0.00 | 75 | 1003.9 |
| 20260505162351 | 77 | 213 | 12.2 | 14.8 | 0.00 | 0.00 | 0.00 | 75 | 1004.0 |
| 20260505161848 | 77 | 207 | 12.2 | 20.0 | 0.00 | 0.00 | 0.00 | 75 | 1003.8 |
| 20260505161345 | 76 | 172 | 11.3 | 14.8 | 0.00 | 0.00 | 0.00 | 76 | 1003.7 |
| 20260505160842 | 76 | 134 | 16.5 | 20.9 | 0.00 | 0.00 | 0.00 | 76 | 1003.8 |
| 20260505160341 | 76 | 187 | 11.3 | 16.5 | 0.00 | 0.00 | 0.00 | 77 | 1003.7 |
| 20260505153320 | 75 | 207 | 9.6 | 13.9 | 0.00 | 0.00 | 0.00 | 78 | 1004.0 |
| 20260505152817 | 74 | 186 | 7.8 | 14.8 | 0.00 | 0.00 | 0.00 | 79 | 1004.0 |
| 20260505152314 | 74 | 147 | 9.6 | 13.9 | 0.00 | 0.00 | 0.00 | 79 | 1004.2 |
| 20260505151813 | 74 | 208 | 7.8 | 14.8 | 0.00 | 0.00 | 0.00 | 79 | 1004.0 |
| 20260505151310 | 74 | 215 | 11.3 | 15.6 | 0.00 | 0.00 | 0.00 | 79 | 1004.0 |
| 20260505150807 | 75 | 203 | 13.9 | 15.6 | 0.00 | 0.00 | 0.00 | 79 | 1004.1 |
| 20260505150305 | 74 | 201 | 10.4 | 14.8 | 0.00 | 0.00 | 0.00 | 80 | 1004.1 |
| 20260505140229 | 72 | 196 | 7.8 | 13.9 | 0.00 | 0.00 | 0.00 | 84 | 1003.9 |
| 20260505130153 | 70 | 181 | 7.0 | 11.3 | 0.00 | 0.00 | 0.00 | 85 | 1003.9 |
| 20260505124642 | 70 | 189 | 9.6 | 12.2 | 0.00 | 0.00 | 0.00 | 86 | 1003.6 |
| 20260505124139 | 70 | 179 | 8.7 | 12.2 | 0.00 | 0.00 | 0.00 | 86 | 1003.7 |
| 20260505123635 | 70 | 150 | 6.1 | 11.3 | 0.00 | 0.00 | 0.00 | 86 | 1003.7 |
| 20260505123132 | 70 | 190 | 7.0 | 12.2 | 0.00 | 0.00 | 0.00 | 85 | 1003.8 |
| 20260505122629 | 70 | 165 | 8.7 | 12.2 | 0.00 | 0.00 | 0.00 | 85 | 1003.7 |
| 20260505122126 | 70 | 200 | 6.1 | 11.3 | 0.00 | 0.00 | 0.00 | 85 | 1003.5 |
| 20260505121622 | 70 | 174 | 7.0 | 13.0 | 0.00 | 0.00 | 0.00 | 85 | 1003.3 |
| 20260505121119 | 70 | 194 | 8.7 | 12.2 | 0.00 | 0.00 | 0.00 | 85 | 1003.4 |
| 20260505120615 | 70 | 162 | 12.2 | 14.8 | 0.00 | 0.00 | 0.00 | 85 | 1003.2 |
| 20260505120112 | 70 | 143 | 6.1 | 14.8 | 0.00 | 0.00 | 0.00 | 86 | 1003.3 |
| 20260505115606 | 70 | 162 | 6.1 | 13.0 | 0.00 | 0.00 | 0.00 | 86 | 1003.4 |
| 20260505115104 | 69 | 180 | 9.6 | 13.0 | 0.00 | 0.00 | 0.00 | 86 | 1003.5 |
| 20260505114600 | 69 | 202 | 5.2 | 11.3 | 0.00 | 0.00 | 0.00 | 85 | 1003.2 |